Location: ??
(35.4032°N, 139.3073°E)
Time: 13:26:07
(UTC+00:00)

Cosmos 1627 Rocket - Pass Details

Date: 13 April 2024
Orbit: 949 x 1004 km, 82.9° (Epoch: 27 May)

Event Time Altitude Azimuth Distance (km) Brightness Sun altitude
Exits shadow 18:10:41 48° 221° (SW) 1,262 4.6 -23.7°
Maximum altitude 18:12:18 65° 278° (W) 1,082 4.5 -23.4°
Drops below altitude 10° 18:18:37 10° 360° (N) 2,770 7.2 -22.3°
Sets 18:21:12 0° 3° (N) 3,728 8.0 -21.8°
